Weather History for Warrensburg, MO

Change the Weather History Date:

Friday, May 3, 2013

  Actual Average (KSZL) Record (KSZL)
Temperature  
Mean Temperature 32 °F -  
Max Temperature 33 °F 70 °F 84 °F (2001)
Min Temperature 32 °F 51 °F 32 °F (2013)
Degree Days  
Heating Degree Days 32    
Moisture  
Dew Point 32 °F    
Average Humidity 96    
Maximum Humidity 100    
Minimum Humidity 93    
Precipitation  
Precipitation 0.11 in - - ()
Sea Level Pressure  
Sea Level Pressure 30.08 in    
Wind  
Wind Speed 8 mph (NW)    
Max Wind Speed 14 mph    
Max Gust Speed 23 mph    
Visibility 7 miles    
Events Rain , Snow    
Averages and records for this station are not official NWS values.
T = Trace of Precipitation, MM = Missing Value Source: NWS Daily Summary

Daily Weather History Graph

Daily Weather History Graph

Search for Another Location

Airport:

Trip Planner

Search our weather history database for the weather conditions in past years. The results will help you decide how hot, cold, wet, or windy it might be!

Date:

Astronomy

May. 03, 2013 Rise Set
Actual Time 6:14 AM CDT 8:09 PM CDT
Civil Twilight 5:46 AM CDT 8:38 PM CDT
Nautical Twilight 5:10 AM CDT 9:14 PM CDT
Astronomical Twilight 4:33 AM CDT 9:51 PM CDT
Moon 2:36 AM CDT (5/3) 2:08 PM CDT (5/3)
Length of Visible Light 14h 52m
Length of Day
13h 54m
Last Quarter, 37% of the Moon is Illuminated
May 3
Last Quarter
May 9
New
May 17
First Quarter
May 24
Full
May 31
Last Quarter

Hourly Weather History & Observations

Time (CDT) Temp. Windchill Dew Point Humidity Pressure Visibility Wind Dir Wind Speed Gust Speed Precip Events Conditions
12:15 AM 32.0 °F 25.6 °F 32.0 °F 100% 30.27 in 2.0 mi NW 6.9 mph - 0.02 in Snow Light Snow
12:35 AM 32.0 °F 24.2 °F 32.0 °F 100% 30.26 in 2.0 mi NW 9.2 mph - 0.03 in Snow Light Snow
12:55 AM 32.0 °F 24.2 °F 32.0 °F 100% 30.27 in 2.5 mi NW 9.2 mph - 0.04 in Snow Light Snow
1:15 AM 32.0 °F 24.2 °F 32.0 °F 100% 30.24 in 2.0 mi NNW 9.2 mph - N/A Snow Light Snow
1:35 AM 32.0 °F 24.8 °F 32.0 °F 100% 30.23 in 1.5 mi NNW 8.1 mph - 0.03 in Snow Light Snow
1:55 AM 32.0 °F 25.6 °F 32.0 °F 100% 30.22 in 2.0 mi NW 6.9 mph - 0.05 in Snow Light Snow
2:15 AM 32.0 °F 25.6 °F 32.0 °F 100% 30.20 in 2.5 mi NW 6.9 mph - 0.01 in Snow Light Snow
2:35 AM 32.0 °F 24.8 °F 32.0 °F 100% 30.20 in 4.0 mi NNW 8.1 mph - 0.01 in Snow Light Snow
2:55 AM 32.0 °F 26.4 °F 32.0 °F 100% 30.21 in 7.0 mi NW 5.8 mph - 0.01 in Snow Light Snow
3:15 AM 32.0 °F 24.2 °F 32.0 °F 100% 30.17 in 3.0 mi NNW 9.2 mph - N/A Snow Light Snow
3:35 AM 32.0 °F 25.6 °F 32.0 °F 100% 30.17 in 1.8 mi NNW 6.9 mph - 0.01 in Snow Light Snow
3:55 AM 32.0 °F 26.4 °F 32.0 °F 100% 30.16 in 2.5 mi NNW 5.8 mph - 0.01 in Snow Light Snow
4:15 AM 32.0 °F 26.4 °F 32.0 °F 100% 30.16 in 5.0 mi NW 5.8 mph - N/A Snow Light Snow
4:35 AM 32.0 °F 27.5 °F 32.0 °F 100% 30.19 in 10.0 mi NW 4.6 mph - N/A Snow Light Snow
4:55 AM 32.0 °F 27.5 °F 32.0 °F 100% 30.16 in 10.0 mi NNW 4.6 mph - N/A Snow Light Snow
5:15 AM 32.0 °F 26.4 °F 32.0 °F 100% 30.17 in 10.0 mi NW 5.8 mph - N/A   Overcast
5:35 AM 32.0 °F 25.6 °F 32.0 °F 100% 30.15 in 5.0 mi NNW 6.9 mph - N/A Snow Light Snow
5:55 AM 32.0 °F 27.5 °F 32.0 °F 100% 30.15 in 5.0 mi NNW 4.6 mph - N/A Snow Light Snow
6:15 AM 32.0 °F 26.4 °F 32.0 °F 100% 30.15 in 4.0 mi NW 5.8 mph - N/A Snow Light Snow
6:35 AM 32.0 °F 27.5 °F 32.0 °F 100% 30.17 in 10.0 mi NW 4.6 mph - N/A   Overcast
6:55 AM 32.0 °F 26.4 °F 32.0 °F 100% 30.15 in 10.0 mi NNW 5.8 mph - N/A   Overcast
7:15 AM 32.0 °F 25.6 °F 32.0 °F 100% 30.13 in 5.0 mi NNW 6.9 mph - N/A Snow Light Snow
7:35 AM 32.0 °F 26.4 °F 32.0 °F 100% 30.13 in 5.0 mi NW 5.8 mph - N/A Snow Light Snow
7:55 AM 32.0 °F 26.4 °F 32.0 °F 100% 30.12 in 7.0 mi NW 5.8 mph - N/A Snow Light Snow
8:35 AM 33.8 °F 27.0 °F 32.0 °F 93% 30.12 in 10.0 mi NW 8.1 mph - N/A   Light Drizzle
8:55 AM 33.8 °F 25.8 °F 32.0 °F 93% 30.11 in 10.0 mi NW 10.4 mph - N/A Rain Light Rain
9:15 AM 33.8 °F 25.8 °F 32.0 °F 93% 30.10 in 10.0 mi NW 10.4 mph - N/A   Overcast
9:35 AM 33.8 °F 24.8 °F 32.0 °F 93% 30.09 in 10.0 mi NNW 12.7 mph 19.6 mph N/A   Overcast
9:55 AM 33.8 °F 25.3 °F 32.0 °F 93% 30.09 in 10.0 mi NNW 11.5 mph - N/A   Light Drizzle
10:15 AM 33.8 °F 24.3 °F 32.0 °F 93% 30.10 in 7.0 mi NW 13.8 mph - N/A Rain Light Rain
10:35 AM 33.8 °F 25.3 °F 32.0 °F 93% 30.09 in 7.0 mi NW 11.5 mph 19.6 mph N/A Rain Light Rain
10:55 AM 33.8 °F 25.3 °F 32.0 °F 93% 30.09 in 7.0 mi NNW 11.5 mph 17.3 mph N/A Rain Light Rain
11:15 AM 33.8 °F 25.3 °F 32.0 °F 93% 30.08 in 10.0 mi NW 11.5 mph 18.4 mph N/A Rain Light Rain
11:35 AM 33.8 °F 24.8 °F 32.0 °F 93% 30.08 in 10.0 mi NNW 12.7 mph 17.3 mph N/A Rain Light Rain
11:55 AM 33.8 °F 24.3 °F 32.0 °F 93% 30.07 in 10.0 mi NNW 13.8 mph 19.6 mph N/A Rain Light Rain
12:15 PM 33.8 °F 25.3 °F 32.0 °F 93% 30.08 in 10.0 mi NNW 11.5 mph 19.6 mph N/A Rain Light Rain
12:55 PM 33.8 °F 25.8 °F 32.0 °F 93% 30.05 in 7.0 mi NW 10.4 mph - N/A Rain Light Rain
1:15 PM 33.8 °F 25.3 °F 32.0 °F 93% 30.04 in 10.0 mi NW 11.5 mph - N/A Rain Light Rain
2:15 PM 33.8 °F 26.4 °F 32.0 °F 93% 30.04 in 10.0 mi NW 9.2 mph - N/A Rain Light Rain
2:35 PM 33.8 °F 25.3 °F 32.0 °F 93% 30.05 in 10.0 mi NW 11.5 mph - N/A Rain Light Rain
2:55 PM 33.8 °F 25.8 °F 32.0 °F 93% 30.03 in 10.0 mi NW 10.4 mph - N/A Rain Light Rain
3:15 PM 33.8 °F 24.8 °F 32.0 °F 93% 30.03 in 10.0 mi NW 12.7 mph 19.6 mph N/A Rain Light Rain
3:35 PM 33.8 °F 24.3 °F 32.0 °F 93% 30.02 in 10.0 mi NW 13.8 mph 19.6 mph N/A Rain Light Rain
3:55 PM 33.8 °F 26.4 °F 32.0 °F 93% 30.02 in 10.0 mi NNW 9.2 mph 23.0 mph N/A Rain Light Rain
4:15 PM 33.8 °F 24.3 °F 32.0 °F 93% 30.01 in 10.0 mi NNW 13.8 mph 19.6 mph N/A   Overcast
4:35 PM 33.8 °F 24.8 °F 32.0 °F 93% 30.02 in 10.0 mi NNW 12.7 mph 17.3 mph N/A   Overcast
4:55 PM 33.8 °F 25.8 °F 32.0 °F 93% 30.00 in 10.0 mi NW 10.4 mph - N/A   Overcast
5:15 PM 33.8 °F 24.8 °F 32.0 °F 93% 30.00 in 10.0 mi NNW 12.7 mph 18.4 mph N/A   Overcast
5:35 PM 33.8 °F 26.4 °F 32.0 °F 93% 30.00 in 10.0 mi NW 9.2 mph - N/A   Overcast
5:55 PM 33.8 °F 25.8 °F 32.0 °F 93% 29.99 in 10.0 mi NW 10.4 mph 17.3 mph N/A   Overcast
6:15 PM 33.8 °F 25.8 °F 32.0 °F 93% 29.99 in 10.0 mi NW 10.4 mph - N/A   Overcast
6:35 PM 33.8 °F 25.8 °F 32.0 °F 93% 29.98 in 10.0 mi NW 10.4 mph - N/A   Overcast
6:55 PM 33.8 °F 25.8 °F 32.0 °F 93% 29.97 in 10.0 mi NW 10.4 mph - N/A Rain Light Rain
7:35 PM 33.8 °F 25.8 °F 32.0 °F 93% 29.97 in 10.0 mi NW 10.4 mph 16.1 mph N/A   Overcast
8:15 PM 33.8 °F 25.8 °F 32.0 °F 93% 29.96 in 10.0 mi NW 10.4 mph - N/A   Overcast
8:35 PM 33.8 °F 27.7 °F 32.0 °F 93% 29.96 in 7.0 mi NNW 6.9 mph - N/A Rain Light Rain
8:55 PM 33.8 °F 27.7 °F 32.0 °F 93% 29.96 in 7.0 mi NNW 6.9 mph - N/A   Light Drizzle
9:15 PM 33.8 °F 28.6 °F 32.0 °F 93% 29.95 in 7.0 mi NW 5.8 mph - N/A Rain Light Rain
9:35 PM 33.8 °F 28.6 °F 32.0 °F 93% 29.95 in 7.0 mi NNW 5.8 mph - N/A Rain Light Rain
9:55 PM 33.8 °F 28.6 °F 32.0 °F 93% 29.94 in 7.0 mi NW 5.8 mph - N/A   Light Drizzle
10:15 PM 33.8 °F 27.7 °F 32.0 °F 93% 29.93 in 7.0 mi NW 6.9 mph - N/A   Light Drizzle
10:35 PM 33.8 °F 27.7 °F 32.0 °F 93% 29.93 in 7.0 mi NNW 6.9 mph - N/A   Overcast
10:55 PM 33.8 °F 29.6 °F 32.0 °F 93% 29.92 in 7.0 mi NW 4.6 mph - N/A   Overcast
11:15 PM 33.8 °F 28.6 °F 32.0 °F 93% 29.91 in 5.0 mi NW 5.8 mph - N/A   Drizzle
11:35 PM 33.8 °F 28.6 °F 32.0 °F 93% 29.90 in 5.0 mi NW 5.8 mph - N/A Rain Light Rain
11:55 PM 32.0 °F - 32.0 °F 100% 29.90 in 7.0 mi Calm Calm - N/A Rain Rain